Location: Moscow
(38.8570°N, 84.2291°W)
Time: 15:16:05
(UTC+00:00)

RESURS DK-1 - Pass Details

Date: 15 November 2025
Orbit: 524 x 535 km, 69.9° (Epoch: 06 December)

Event Time Altitude Azimuth Distance (km) Brightness Sun altitude
Rises 23:48:54 0° 340° (NNW) 2,693 6.0 -16.8°
Reaches altitude 10° 23:51:08 10° 344° (NNW) 1,798 5.0 -17.2°
Maximum altitude 23:55:05 58° 64° (ENE) 631 2.2 -18.0°
Enters shadow 23:56:50 30° 131° (SE) 976 3.2 -18.3°
